Location: Unspecified
(0.0000°N, 0.0000°E)
Time: 17:59:11
(UTC+00:00)

Transit 2A - Pass Details

Date: 17 May 2025
Orbit: 600 x 947 km, 66.7° (Epoch: 11 June)

Event Time Altitude Azimuth Distance (km) Brightness Sun altitude
Rises 05:02:07 0° 174° (S) 3,416 9.2 -12.8°
Reaches altitude 10° 05:05:22 10° 157° (SSE) 2,411 8.6 -12.0°
Maximum altitude 05:09:12 19° 113° (ESE) 1,772 8.5 -11.1°
Drops below altitude 10° 05:12:48 10° 68° (ENE) 2,239 10.1 -10.3°
Sets 05:15:40 0° 50° (NE) 3,090 10.7 -9.6°
